Tokyo Haneda International Airport Tokyo JP
ICAO: RJTT
IATA: HND
Category: Large
Scheduled Services:

Elevation: 35 ft
TransAlt. 14000 ft.

Airport Communications:
NORTH PACIFIC AREA:126.9
APP:119.1
ATIS:128.8
CLNC DEL:121.825
:120.8
DEP:126
:118.225
:121.625
GND:121.7
:121.975
TCA:124.75
TWR:118.1
:124.35

RJTT Zoom In..

If you have problems with the map follow the link
https://www.worldairports.se/pages/airport.php?
ICAO=RJTT

Runways:

(A) RW 04 length 8202 ft width 197 ft
---- / hdg 42

(B) RW 05 length 8202 ft width 197 ft
---- / hdg 50

(C) RW 16L length 9547 ft width 197 ft
---- / hdg 157

(D) RW 16R length 9843 ft width 197 ft
---- / hdg 157

(E) RW 22 length 8202 ft width 197 ft
ILS 108.10 / hdg 222

(F) RW 23 length 8202 ft width 197 ft
ILS 110.50 / hdg 230

(G) RW 34L length 9843 ft width 197 ft
ILS 111.70 / hdg 337

(H) RW 34R length 9547 ft width 197 ft
ILS 108.90 / hdg 337

Location; RJTT
Day. 18 / Time. 05.00 Zulu
* Altimeter: 29.83
* Temperature: 26° c. 78.8°f.
* Wind from: 190° Speed 12 kn.
Dewpoint: 19° c.
Visibility: 10 km or more.
Clouds: Few 3000 ft.
Clouds: Overcast /00 ft.
No significant changes expected in the near future.

RJTT 180500Z 19012KT 9999 FEW030 OVC/// 26/19 Q1010 NOSIG RMK 1CU030 A2983


Wind From 190°
Speed 12 kn.

 
 
jpsmedia.com for Web Design worldairports.se 2019   terms of use